Angel Fire, NM

1:44 PM MST on December 06, 2019 (GMT -0700)
Angel Fire

Weather History for KAXX - October, 2019

Change the Weather History Date:

Tuesday, October 29, 2019

  Actual Average (WUND) Record (WUND)
Temperature  
Mean Temperature 27 °F -  
Max Temperature 44 °F - - (-1)
Min Temperature 10 °F - - (-1)
Degree Days  
Heating Degree Days 38    
Moisture  
Dew Point 11 °F    
Average Humidity 49    
Maximum Humidity 86    
Minimum Humidity 17    
Precipitation  
Precipitation 0.00 in - - ()
Sea Level Pressure  
Sea Level Pressure 29.87 in    
Wind  
Wind Speed 14 mph (SW)    
Max Wind Speed 25 mph    
Max Gust Speed 33 mph    
Visibility 10 miles    
Events      
Averages and records for this station are not official NWS values.
T = Trace of Precipitation, MM = Missing Value Source: NWS Daily Summary

Daily Weather History Graph

Daily Weather History Graph

Search for Another Location

Airport or City:

Astronomy

Oct. 29, 2019 Rise Set
Actual Time 7:21 AM MDT 6:07 PM MDT
Civil Twilight 6:54 AM MDT 6:34 PM MDT
Nautical Twilight 6:24 AM MDT 7:04 PM MDT
Astronomical Twilight 5:54 AM MDT 7:34 PM MDT
Moon 8:56 AM MDT (10/29) 7:36 PM MDT (10/29)
Length of Visible Light 11h 39m
Length of Day
10h 46m
Waxing Crescent, 3% of the Moon is Illuminated
Oct 29
Waxing Crescent
Nov 4
First Quarter
Nov 12
Full
Nov 19
Last Quarter
Nov 26
New

Hourly Weather History & Observations

Time (MDT) Temp. Windchill Dew Point Humidity Pressure Visibility Wind Dir Wind Speed Gust Speed Precip Events Conditions
12:15 AM 23.0 °F 9.6 °F -0.4 °F 36% 29.96 in 10.0 mi WSW 16.1 mph - N/A   Clear
12:35 AM 22.8 °F 9.9 °F -3.6 °F 31% 29.94 in 10.0 mi WSW 15.0 mph - N/A   Clear
12:55 AM 21.2 °F 11.7 °F -3.3 °F 34% 29.94 in 10.0 mi SW 8.1 mph - N/A   Clear
1:15 AM 16.7 °F 5.3 °F 0.5 °F 49% 29.93 in 10.0 mi SSW 9.2 mph - N/A   Clear
1:35 AM 15.3 °F 4.4 °F 2.1 °F 56% 29.93 in 10.0 mi South 8.1 mph - N/A   Clear
1:55 AM 13.8 °F 3.7 °F 2.7 °F 61% 29.92 in 10.0 mi South 6.9 mph - N/A   Clear
2:15 AM 12.6 °F 3.4 °F 1.4 °F 61% 29.92 in 10.0 mi South 5.8 mph - N/A   Clear
2:35 AM 10.2 °F -0.6 °F 0.7 °F 65% 29.91 in 10.0 mi South 6.9 mph - N/A   Clear
2:55 AM 16.5 °F 6.0 °F -1.3 °F 46% 29.91 in 10.0 mi WSW 8.1 mph - N/A   Clear
3:15 AM 24.3 °F 13.3 °F -3.1 °F 30% 29.91 in 10.0 mi West 11.5 mph - N/A   Clear
3:35 AM 24.6 °F 13.2 °F -1.3 °F 32% 29.91 in 10.0 mi West 12.7 mph 16.1 mph N/A   Clear
3:55 AM 27.0 °F 16.7 °F 3.6 °F 37% 29.90 in 10.0 mi West 11.5 mph - N/A   Clear
4:15 AM 27.5 °F 15.4 °F 8.8 °F 45% 29.90 in 10.0 mi West 16.1 mph 19.6 mph N/A   Clear
4:35 AM 28.2 °F 17.7 °F 9.5 °F 45% 29.89 in 10.0 mi West 12.7 mph 20.7 mph N/A   Clear
4:55 AM 28.0 °F 15.7 °F 9.7 °F 46% 29.89 in 10.0 mi West 17.3 mph 20.7 mph N/A   Clear
5:15 AM 28.0 °F 17.0 °F 10.0 °F 47% 29.89 in 10.0 mi West 13.8 mph 20.7 mph N/A   Clear
5:35 AM 28.9 °F 16.9 °F 12.0 °F 49% 29.89 in 10.0 mi West 17.3 mph 23.0 mph N/A   Clear
5:55 AM 29.1 °F 18.4 °F 12.4 °F 50% 29.88 in 10.0 mi West 13.8 mph 24.2 mph N/A   Clear
6:15 AM 29.3 °F 17.3 °F 12.4 °F 49% 29.88 in 10.0 mi West 17.3 mph 26.5 mph N/A   Clear
6:35 AM 29.8 °F 19.3 °F 12.0 °F 48% 29.88 in 10.0 mi West 13.8 mph 24.2 mph N/A   Clear
6:55 AM 29.7 °F 18.6 °F 11.5 °F 47% 29.88 in 10.0 mi WSW 15.0 mph 23.0 mph N/A   Clear
7:15 AM 29.7 °F 18.6 °F 11.1 °F 46% 29.88 in 10.0 mi West 15.0 mph 21.9 mph N/A   Clear
7:35 AM 29.3 °F 19.1 °F 11.1 °F 47% 29.89 in 10.0 mi West 12.7 mph 19.6 mph N/A   Clear
7:55 AM 28.9 °F 19.8 °F 10.4 °F 46% 29.89 in 10.0 mi West 10.4 mph - N/A   Clear
8:15 AM 31.1 °F 19.7 °F 9.0 °F 40% 29.89 in 10.0 mi West 17.3 mph 25.3 mph N/A   Clear
8:35 AM 32.0 °F 21.6 °F 8.8 °F 38% 29.89 in 10.0 mi West 15.0 mph 18.4 mph N/A   Clear
8:55 AM 32.9 °F 22.4 °F 7.9 °F 35% 29.89 in 10.0 mi West 16.1 mph 23.0 mph N/A   Clear
9:15 AM 33.8 °F 23.2 °F 7.9 °F 34% 29.89 in 10.0 mi West 17.3 mph 25.3 mph N/A   Clear
9:35 AM 35.2 °F 25.0 °F 5.9 °F 29% 29.89 in 10.0 mi West 17.3 mph 23.0 mph N/A   Clear
9:55 AM 35.6 °F 25.5 °F 6.6 °F 30% 29.88 in 10.0 mi West 17.3 mph 26.5 mph N/A   Clear
10:15 AM 36.0 °F 26.0 °F 7.0 °F 30% 29.88 in 10.0 mi West 17.3 mph 24.2 mph N/A   Clear
10:35 AM 37.0 °F 28.9 °F 7.3 °F 29% 29.88 in 10.0 mi West 12.7 mph 21.9 mph N/A   Clear
10:55 AM 37.4 °F 29.3 °F 6.1 °F 27% 29.88 in 10.0 mi West 12.7 mph 24.2 mph N/A   Clear
11:15 AM 38.3 °F 30.5 °F 5.0 °F 25% 29.88 in 10.0 mi West 12.7 mph 19.6 mph N/A   Clear
11:35 AM 38.3 °F 27.8 °F 5.7 °F 26% 29.87 in 10.0 mi West 21.9 mph 31.1 mph N/A   Clear
11:55 AM 38.7 °F 29.5 °F 7.2 °F 27% 29.86 in 10.0 mi West 17.3 mph 26.5 mph N/A   Clear
12:15 PM 39.2 °F 31.2 °F 7.2 °F 27% 29.86 in 10.0 mi West 13.8 mph 20.7 mph N/A   Clear
12:35 PM 40.1 °F 31.6 °F 8.8 °F 28% 29.86 in 10.0 mi West 16.1 mph 24.2 mph N/A   Clear
12:55 PM 41.4 °F 32.4 °F 6.3 °F 24% 29.85 in 10.0 mi SW 19.6 mph 26.5 mph N/A   Clear
1:15 PM 41.9 °F 32.8 °F 5.4 °F 22% 29.84 in 10.0 mi SW 20.7 mph 26.5 mph N/A   Clear
1:35 PM 41.9 °F 33.4 °F 2.8 °F 20% 29.83 in 10.0 mi SW 18.4 mph 27.6 mph N/A   Clear
1:50 PM 42.3 °F 34.4 °F 3.7 °F 20% 29.83 in 10.0 mi SW 16.1 mph 29.9 mph N/A   Clear
2:15 PM 43.0 °F 35.7 °F 4.6 °F 21% 29.82 in 10.0 mi WSW 15.0 mph 24.2 mph N/A   Clear
2:35 PM 43.3 °F 35.2 °F 4.8 °F 20% 29.82 in 10.0 mi SSW 18.4 mph 24.2 mph N/A   Clear
2:55 PM 43.7 °F 35.4 °F 4.1 °F 20% 29.81 in 10.0 mi West 19.6 mph 25.3 mph N/A   Clear
3:15 PM 43.7 °F 36.9 °F 2.7 °F 18% 29.81 in 10.0 mi WSW 13.8 mph 25.3 mph N/A   Clear
3:35 PM 43.3 °F 34.5 °F 0.9 °F 17% 29.81 in 10.0 mi SW 21.9 mph 33.4 mph N/A   Clear
3:55 PM 44.4 °F 38.6 °F 2.5 °F 18% 29.81 in 10.0 mi WSW 11.5 mph 25.3 mph N/A   Clear
4:15 PM 43.7 °F 36.0 °F 16.7 °F 34% 29.80 in 10.0 mi South 17.3 mph 32.2 mph N/A   Scattered Clouds
4:35 PM 38.7 °F 29.1 °F 22.3 °F 52% 29.81 in 10.0 mi South 18.4 mph 21.9 mph N/A   Overcast
4:55 PM 35.2 °F 25.8 °F 24.6 °F 65% 29.80 in 10.0 mi SSW 15.0 mph 23.0 mph N/A   Overcast
5:15 PM 33.3 °F 21.8 °F 25.3 °F 73% 29.80 in 10.0 mi SSW 19.6 mph 24.2 mph N/A   Overcast
5:35 PM 31.3 °F 18.9 °F 25.2 °F 78% 29.80 in 10.0 mi SSW 20.7 mph 29.9 mph N/A   Overcast
5:55 PM 30.6 °F 18.2 °F 25.3 °F 81% 29.80 in 10.0 mi South 19.6 mph 27.6 mph N/A   Overcast
6:15 PM 31.1 °F 18.6 °F 25.2 °F 79% 29.80 in 10.0 mi South 20.7 mph 26.5 mph N/A   Overcast
6:35 PM 30.7 °F 16.9 °F 25.2 °F 80% 29.81 in 10.0 mi South 25.3 mph 33.4 mph N/A   Overcast
6:55 PM 29.8 °F 15.7 °F 25.7 °F 85% 29.82 in 10.0 mi South 25.3 mph 32.2 mph N/A   Overcast
7:15 PM 29.1 °F 15.4 °F 25.5 °F 86% 29.82 in 10.0 mi South 23.0 mph 29.9 mph N/A   Overcast
7:35 PM 28.4 °F 19.7 °F 24.8 °F 86% 29.84 in 10.0 mi SSE 9.2 mph 26.5 mph N/A   Overcast
7:55 PM 27.9 °F 17.8 °F 20.5 °F 74% 29.86 in 10.0 mi East 11.5 mph - N/A   Overcast
8:15 PM 27.5 °F 23.6 °F 21.4 °F 78% 29.86 in 10.0 mi WNW 3.5 mph - N/A   Overcast
8:35 PM 26.4 °F - 20.3 °F 78% 29.88 in 10.0 mi Calm Calm - N/A   Overcast
8:55 PM 25.7 °F 21.5 °F 19.6 °F 78% 29.88 in 10.0 mi East 3.5 mph - N/A   Overcast
9:15 PM 24.6 °F - 18.0 °F 76% 29.89 in 10.0 mi Calm Calm - N/A   Overcast
9:35 PM 23.9 °F 15.8 °F 18.3 °F 79% 29.89 in 10.0 mi NNE 6.9 mph - N/A   Overcast
9:55 PM 22.8 °F 9.4 °F 16.5 °F 77% 29.91 in 10.0 mi East 16.1 mph 20.7 mph N/A   Overcast
10:15 PM 22.1 °F 12.0 °F 16.5 °F 79% 29.91 in 10.0 mi South 9.2 mph 18.4 mph N/A   Overcast
10:35 PM 22.1 °F 14.7 °F 16.2 °F 78% 29.92 in 10.0 mi West 5.8 mph - N/A   Overcast
10:55 PM 22.1 °F 17.4 °F 16.3 °F 79% 29.93 in 10.0 mi SE 3.5 mph 19.6 mph N/A   Overcast
11:15 PM 22.1 °F 8.9 °F 17.2 °F 82% 29.91 in 10.0 mi SE 15.0 mph 20.7 mph N/A   Overcast
11:35 PM 21.2 °F 10.1 °F 15.3 °F 78% 29.91 in 10.0 mi SE 10.4 mph 16.1 mph N/A   Overcast
11:55 PM 21.0 °F 8.6 °F 13.8 °F 74% 29.91 in 10.0 mi ESE 12.7 mph 20.7 mph N/A   Overcast